星链-5775 (STARLINK-5775 )

导读 | 星芒AI

STARLINK-5775 是 SpaceX Starlink 卫星互联网项目中的一颗低轨卫星,属于第 5 批部署的星链卫星群。该卫星于 2020 年 11 月 19 日由猎鹰 9 号火箭从卡纳维拉尔角发射升空,旨在为全球用户提供高速互联网服务。它运行在约 550 公里的轨道高度,配备先进通信设备,支持 Ku 和 Ka 频段传输。作为星链计划的重要组成部分,STARLINK-5775 有助于提升网络覆盖范围与连接稳定性,推动 SpaceX 实现全球宽带接入的目标。

基本信息
目录编号:
56503
目录名称:
STARLINK-5775
国际标识:
2023-065A
轨道中心:
EARTH
卫星名称:
星链-5775
卫星全名:
星链-5775 (STARLINK-5775 )
卫星状态:
在轨 (已飞行905 天)
发射日期:
2023-05-14 UTC
国别 :
美国 (US)
星等 :
--
轨道信息
数据来源 国际轨道数据
星历时间: 2025-11-03T16:05:04+0800
1天前
查看轨道信息
半长轴: 6937.206km
偏心率: 0.0001262
轨道倾角: 43.003°
近地点辐角 269.880°
升交点赤经 177.286°
平近点角 90.190°
近地点: 558.195km
远地点: 559.947km
周期: 95.838分钟
每日圈数: 15.025397
详细信息
固有亮度:
5
最大亮度:
2.5
卫星平台:
Starlink v1.5
覆盖范围:
全球
运营商:
太空探索技术公司
运营商所在国:
美国
制造商(研发单位):
太空探索技术公司
制造商所在国:
美国
使用方式:
暂无
卫星简介
星链(Starlink)计划是由太空探索技术公司(SpaceX)提出的一个巨型低轨卫星互联网星座项目,计划在2019年至2024年间在太空搭建由约1.2万颗卫星组成的“星链”网络,其中1584颗将部署在地球上空550千米处的近地轨道,并从2020年开始工作。该卫星仍在工作。
2D轨道图
3D轨道图
轨道高度分析图
轨道倾角分析图
轨道综合分析图
查看轨道综合分析图